Torna al catalogo

COSMOS 1275 DEB

AttivoPO
NORAD 39963·DEBRIS·🇷🇺 Russia

Lanciato Jun 4, 1981 da Plesetsk Cosmodrome

Loading…

Prossimi Passaggi (prossime 24 ore)

TLE

In scadenzaSource: Space-Track

Epoca: Sep 7, 2026, 12:00 UTC

1 39963U 81053NZ  26250.50062353  .00000809  00000-0  87948-3 0  9992
2 39963  83.0096 318.7628 0130619 231.1309 127.8133 13.68195007610442

Traccia COSMOS 1275 DEB in tempo reale con AllMySat

Download on the App Store